STARLINK-32952, 63146

Orbit data source: Space-Track

STARLINK-32952, 63146 is a payload satellite owned by SpaceX/Seattle (US) in LEO that was launched on Mon, 03 Mar 2025 UTC via an FALCON 9 launch vehicle from the Air Force Eastern Test Range (AFETR). Payload-class satellites include a variety of spacecraft equipped with specific instruments for various scientific and technological missions. These include communications satellites like Starlink; space stations such as the ISS; scientific satellites like the Hubble; Earth observation satellites from companies like Planet Labs, Umbra, and HawkEye 360; GPS; miniature CubeSats for education and research; and military/defense satellites.

Loading next visibility...
Identifier
63146, 2025-043Q
Orbit
LEO
Country
Flag of USUS
Related business
Manufacturer
SpaceX/Seattle
Mission
Operational Commercial Communications
Bus & Motor
STARLINK V2M, Unknown motor
Mass
730 kg wet, ~700 kg dry
Launch date (UTC)
2025-03-03 (2 years ago)
Launch vehicle
FALCON 9
Launch site
Air Force Eastern Test Range (AFETR)
Object type
Payload
Rocket body
Debris
Shape & HBR
Box + 2 Pan, 17.7 m
Radar Cross Section
33.884 m², Large (>1 m²)

Expand to show TLE details & history
Last TLE update: 12 hours ago

TLE from 12 hours ago
0 STARLINK-32952
1 63146U 25043Q   26255.82592077  .00011998  00000-0  44475-3 0  9999
2 63146  43.0027  46.1811 0001676 266.8134  93.2526 15.27584097 86536
Epoch: 2026-09-12T19:49Z
TLE epoch observation values (Epoch: 2026-09-12T19:49:19.554Z)
Latitude
-0.00002°
Longitude
117.02025°
Altitude
482.878 km
Speed
7.626 km/s
True Right ascension
03h 04m 43s
True Declination
0° 00' 00"
Sunlit
Object was in full shadow at epoch
Visualization orbit readout
Latitude
Unknown
Longitude
Unknown
Altitude
Unknown
Speed
Unknown
Apparent Right ascension
Unknown
Apparent Declination
Unknown
Sunlit
N/A
Visualization observer readout
Local Sidereal Time
23:51:08
Azimuth
Unknown
Elevation
Unknown
Doppler factor
Unknown
Orbital elements
Apogee altitude
486.132 km
Perigee altitude
483.831 km
Semi-major axis
6,863.119 km
Eccentricity
0.00017
Inclination
43.0027°
RAAN
46.1811°
Arg. of periapsis
266.8134°
True anomaly
93.27177°
Mean anomaly
93.2526°
Eccentric anomaly
93.26219°
Mean motion
3.81734 °/min
Orbital period
94.31 mins
BSTAR
0.00044475
Loading maneuver chart data...
Computing Atmospheric mass density...
Loading historical data...
Loading historical data...
Loading historical data...
Loading historical data...
Loading historical data...
Loading historical data...
Loading historical data...

Documentation

Showing up to 5 results
|